sat.trackr.live / text

‹ back to catalog

SPARK 2

NORAD 41901 · 2016-081D

PAYLOAD ACTIVE UNKNOWN

§ Identity

Operator
Country
PRC
Launch date
2016-12-21
Launch site
JSC
Launch vehicle
Mass (kg)
RCS (m²)
0.24

External: N2YO · Heavens-Above · Gunter

§ Orbital elements

Epoch: 2026-05-25T05:31:43.455648Z

Period
98.69 min
Inclination
98.5483°
Eccentricity
0.0026123
Mean motion
14.59134396 rev/d
Perigee alt
677.5 km
Apogee alt
714.5 km
Semi-major
7,074.1 km
B*
1.2623e-4
RAAN
134.3232°
Arg perigee
37.5931°
Mean anomaly
322.7087°
Rev number
50,077

§ Raw data

SPARK 21 41901U 16081D   26145.23036407  .00000546  00000+0  12623-3 0  99952 41901  98.5483 134.3232 0026123  37.5931 322.7087 14.59134396500777

JSON: /api/v1/satellites/41901 · /tle

For live sub-satellite position, see the globe view (requires WebGL).

§ Visibility from observer

Set your observer location to see the next 7 days of passes ≥ 10°. The values pass through the URL so the page stays shareable.

No JS? Fill the form by hand. The geolocation button needs JavaScript.